FENGYUN 1C DEB, 31439

Orbit data source: Space-Track

FENGYUN 1C DEB, 31439 is space debris in SSO originally from a launch on Mon, 10 May 1999 UTC launched from the Taiyaun Space Center, China (TSC). Fengyun 1C debris stems from the Chinese weather satellite Fengyun-1C, which was intentionally destroyed by a Chinese anti-satellite missile in 2007. This event dramatically increased the amount of space debris, with thousands of trackable fragments posing hazards to satellites and human spaceflight. The Fengyun 1C debris cloud has become a focal point in discussions about space sustainability and the need for international regulations to prevent the creation of new debris.

Loading next visibility...
Identifier
31439, 1999-025BUB
Orbit
SSO
Country
Flag of CNCN / PRC
Related business
Manufacturer
Unknown
Mission
Spacecraft
Bus & Motor
Unknown
Mass
Unknown
Launch date (UTC)
1999-05-10 (27 years ago)
Launch vehicle
Unknown
Launch site
Taiyaun Space Center, China (TSC)
Object type
Payload
Rocket body
Debris
Shape & HBR
Unknown shape, 0.1 m
Radar Cross Section
Small (<0.1 m²)

Expand to show TLE details & history
Last TLE update: 13 hours ago

TLE from 13 hours ago
0 FENGYUN 1C DEB
1 31439U 99025BUB 26062.87376473  .00001307  00000-0  91574-3 0  9996
2 31439  98.9181  71.3015 0136192 298.9489 179.5435 13.95794146643642
Epoch: 2026-03-03T20:58Z
TLE epoch observation values (Epoch: 2026-03-03T20:58:13.272Z)
Latitude
60.33868°
Longitude
151.00924°
Altitude
1,017.877 km
Speed
7.298 km/s
True Right ascension
17h 48m 50s
True Declination
60° 11' 45"
Sunlit
Object was in daylight at epoch
Visualization orbit readout
Latitude
Unknown
Longitude
Unknown
Altitude
Unknown
Speed
Unknown
Apparent Right ascension
Unknown
Apparent Declination
Unknown
Sunlit
N/A
Visualization observer readout
Local Sidereal Time
14:14:13
Azimuth
Unknown
Elevation
Unknown
Doppler factor
Unknown
Orbital elements
Apogee altitude
1,004.795 km
Perigee altitude
806.397 km
Semi-major axis
7,283.733 km
Eccentricity
0.01362
Inclination
98.9181°
RAAN
71.3015°
Arg. of periapsis
298.9489°
True anomaly
179.55573°
Mean anomaly
179.5435°
Eccentric anomaly
179.54963°
Mean motion
3.4915 °/min
Orbital period
103.11 mins
BSTAR
0.00091574
Loading maneuver chart data...
Computing Atmospheric mass density...
Loading historical data...
Loading historical data...
Loading historical data...
Loading historical data...
Loading historical data...
Loading historical data...
Loading historical data...

Documentation

Showing up to 5 results
|